Time,TemperatureF,DewpointF,PressureIn,WindDirection,WindDirectionDegrees,WindSpeedMPH,WindSpeedGustMPH,Humidity,HourlyPrecipIn,Conditions,Clouds,dailyrainin,SoftwareType,DateUTC
2013-02-20 00:08:00,41.4,30.9,29.72,NNE,31,2.0,9.0,66,0.00,,,-99.99,Weather View 32 v60,2013-02-20 08:08:00,
2013-02-20 00:13:00,41.5,31.0,29.72,North,0,5.0,9.0,66,0.00,,,-99.99,Weather View 32 v60,2013-02-20 08:13:00,
2013-02-20 00:18:00,41.5,31.0,29.73,NE,43,1.0,9.0,66,0.00,,,-99.99,Weather View 32 v60,2013-02-20 08:18:00,
2013-02-20 00:23:00,41.5,31.3,29.72,NE,44,3.0,9.0,67,0.00,,,-99.99,Weather View 32 v60,2013-02-20 08:23:00,
2013-02-20 00:28:00,41.4,31.3,29.72,NNE,22,5.0,9.0,67,0.00,,,-99.99,Weather View 32 v60,2013-02-20 08:28:00,
2013-02-20 00:38:00,41.4,30.9,29.72,North,1,1.0,9.0,66,0.00,,,-99.99,Weather View 32 v60,2013-02-20 08:38:00,
2013-02-20 00:48:00,41.5,31.0,29.72,NNW,346,3.0,9.0,66,0.00,,,-99.99,Weather View 32 v60,2013-02-20 08:48:00,
2013-02-20 00:58:00,41.4,31.3,29.72,SSW,197,0.0,9.0,67,0.00,,,-99.99,Weather View 32 v60,2013-02-20 08:58:00,
2013-02-20 01:03:00,41.3,31.5,29.72,SSW,197,0.0,9.0,68,0.00,,,-99.99,Weather View 32 v60,2013-02-20 09:03:00,
2013-02-20 01:13:00,40.7,31.3,29.72,NNE,19,0.0,9.0,69,0.00,,,-99.99,Weather View 32 v60,2013-02-20 09:13:00,
2013-02-20 01:18:00,40.4,31.0,29.73,North,7,5.0,11.0,69,0.00,,,-99.99,Weather View 32 v60,2013-02-20 09:18:00,
2013-02-20 01:28:00,40.7,31.0,29.73,North,6,4.0,11.0,68,0.00,,,-99.99,Weather View 32 v60,2013-02-20 09:28:00,
2013-02-20 01:33:00,40.9,30.8,29.73,NNE,16,6.0,12.0,67,0.00,,,-99.99,Weather View 32 v60,2013-02-20 09:33:00,
2013-02-20 01:43:00,41.2,31.1,29.73,NE,54,6.0,12.0,67,0.00,,,-99.99,Weather View 32 v60,2013-02-20 09:43:00,
2013-02-20 01:53:00,41.3,30.8,29.74,NNW,333,3.0,12.0,66,0.00,,,-99.99,Weather View 32 v60,2013-02-20 09:53:00,
2013-02-20 01:58:00,41.5,31.0,29.74,NNE,21,4.0,12.0,66,0.00,,,-99.99,Weather View 32 v60,2013-02-20 09:58:00,
2013-02-20 02:08:00,41.7,30.4,29.74,SSE,166,3.0,12.0,64,0.00,,,-99.99,Weather View 32 v60,2013-02-20 10:08:00,
2013-02-20 02:13:00,41.7,30.8,29.74,NNE,14,1.0,12.0,65,0.00,,,-99.99,Weather View 32 v60,2013-02-20 10:13:00,
2013-02-20 02:23:00,41.5,30.6,29.74,NNE,32,4.0,12.0,65,0.00,,,-99.99,Weather View 32 v60,2013-02-20 10:23:00,
2013-02-20 02:28:00,41.4,30.9,29.74,NE,43,6.0,12.0,66,0.00,,,-99.99,Weather View 32 v60,2013-02-20 10:28:00,
2013-02-20 02:33:00,41.4,30.5,29.74,North,0,3.0,11.0,65,0.00,,,-99.99,Weather View 32 v60,2013-02-20 10:33:00,
2013-02-20 02:43:00,41.3,31.2,29.75,North,0,0.0,11.0,67,0.00,,,-99.99,Weather View 32 v60,2013-02-20 10:43:00,
2013-02-20 02:53:00,40.8,31.0,29.75,North,0,2.0,8.0,68,0.00,,,-99.99,Weather View 32 v60,2013-02-20 10:53:00,
2013-02-20 02:58:00,40.6,30.9,29.75,NE,36,7.0,8.0,68,0.00,,,-99.99,Weather View 32 v60,2013-02-20 10:58:00,
2013-02-20 03:03:00,40.6,30.5,29.75,North,2,3.0,8.0,67,0.00,,,-99.99,Weather View 32 v60,2013-02-20 11:03:00,
2013-02-20 03:13:00,40.9,30.8,29.75,NNE,14,5.0,7.0,67,0.00,,,-99.99,Weather View 32 v60,2013-02-20 11:13:00,
2013-02-20 03:18:00,41.0,30.1,29.75,NE,55,6.0,7.0,65,0.00,,,-99.99,Weather View 32 v60,2013-02-20 11:18:00,
2013-02-20 03:23:00,41.2,30.7,29.75,NE,34,5.0,9.0,66,0.00,,,-99.99,Weather View 32 v60,2013-02-20 11:23:00,
2013-02-20 03:33:00,41.6,30.3,29.75,North,357,2.0,9.0,64,0.00,,,-99.99,Weather View 32 v60,2013-02-20 11:33:00,
2013-02-20 03:43:00,41.9,30.2,29.75,NNE,24,4.0,9.0,63,0.00,,,-99.99,Weather View 32 v60,2013-02-20 11:43:00,
2013-02-20 03:48:00,42.2,30.1,29.75,North,3,7.0,9.0,62,0.00,,,-99.99,Weather View 32 v60,2013-02-20 11:48:00,
2013-02-20 03:53:00,42.6,30.1,29.76,East,90,3.0,15.0,61,0.00,,,-99.99,Weather View 32 v60,2013-02-20 11:53:00,
2013-02-20 04:03:00,43.1,30.5,29.76,NNE,31,4.0,15.0,61,0.00,,,-99.99,Weather View 32 v60,2013-02-20 12:03:00,
2013-02-20 04:08:00,43.1,30.5,29.76,ESE,120,2.0,15.0,61,0.00,,,-99.99,Weather View 32 v60,2013-02-20 12:08:00,
2013-02-20 04:13:00,42.9,30.4,29.76,NE,53,4.0,15.0,61,0.00,,,-99.99,Weather View 32 v60,2013-02-20 12:13:00,
2013-02-20 04:23:00,42.9,30.4,29.76,NE,34,7.0,15.0,61,0.00,,,-99.99,Weather View 32 v60,2013-02-20 12:23:00,
2013-02-20 04:28:00,43.0,29.6,29.76,East,96,5.0,15.0,59,0.00,,,-99.99,Weather View 32 v60,2013-02-20 12:28:00,
2013-02-20 04:33:00,43.2,30.2,29.76,NNW,346,6.0,15.0,60,0.00,,,-99.99,Weather View 32 v60,2013-02-20 12:33:00,
2013-02-20 04:43:00,43.5,30.1,29.77,NNE,28,3.0,15.0,59,0.00,,,-99.99,Weather View 32 v60,2013-02-20 12:43:00,
2013-02-20 04:48:00,43.6,29.8,29.77,NNW,331,4.0,15.0,58,0.00,,,-99.99,Weather View 32 v60,2013-02-20 12:48:00,
2013-02-20 04:53:00,43.6,30.2,29.77,SSE,152,7.0,11.0,59,0.00,,,-99.99,Weather View 32 v60,2013-02-20 12:53:00,
2013-02-20 04:58:00,43.6,29.8,29.77,NNE,32,4.0,11.0,58,0.00,,,-99.99,Weather View 32 v60,2013-02-20 12:58:00,
2013-02-20 05:08:00,43.8,29.5,29.77,NE,42,8.0,11.0,57,0.00,,,-99.99,Weather View 32 v60,2013-02-20 13:08:00,
2013-02-20 05:13:00,43.9,29.6,29.78,ENE,58,7.0,11.0,57,0.00,,,-99.99,Weather View 32 v60,2013-02-20 13:13:00,
2013-02-20 05:18:00,43.9,29.6,29.78,North,10,4.0,11.0,57,0.00,,,-99.99,Weather View 32 v60,2013-02-20 13:18:00,
2013-02-20 05:23:00,43.9,29.6,29.78,NE,36,6.0,11.0,57,0.00,,,-99.99,Weather View 32 v60,2013-02-20 13:23:00,
2013-02-20 05:28:00,43.8,29.5,29.78,NE,34,4.0,10.0,57,0.00,,,-99.99,Weather View 32 v60,2013-02-20 13:28:00,
2013-02-20 05:33:00,43.8,29.5,29.78,NW,323,2.0,12.0,57,0.00,,,-99.99,Weather View 32 v60,2013-02-20 13:33:00,
2013-02-20 05:43:00,43.8,30.4,29.79,NE,46,5.0,12.0,59,0.00,,,-99.99,Weather View 32 v60,2013-02-20 13:43:00,
2013-02-20 05:48:00,43.7,29.9,29.79,WNW,300,3.0,12.0,58,0.00,,,-99.99,Weather View 32 v60,2013-02-20 13:48:00,
2013-02-20 05:53:00,43.6,30.2,29.79,NNE,17,1.0,12.0,59,0.00,,,-99.99,Weather View 32 v60,2013-02-20 13:53:00,
2013-02-20 05:58:00,43.5,30.1,29.79,NNE,17,2.0,12.0,59,0.00,,,-99.99,Weather View 32 v60,2013-02-20 13:58:00,
2013-02-20 06:03:00,43.2,30.6,29.78,NNE,17,4.0,12.0,61,0.00,,,-99.99,Weather View 32 v60,2013-02-20 14:03:00,
2013-02-20 06:08:00,43.0,30.0,29.79,NNE,26,4.0,12.0,60,0.00,,,-99.99,Weather View 32 v60,2013-02-20 14:08:00,
2013-02-20 06:13:00,43.0,29.2,29.79,NNE,32,0.0,12.0,58,0.00,,,-99.99,Weather View 32 v60,2013-02-20 14:13:00,
2013-02-20 06:18:00,43.1,30.1,29.79,North,7,4.0,12.0,60,0.00,,,-99.99,Weather View 32 v60,2013-02-20 14:18:00,
2013-02-20 06:23:00,43.1,29.7,29.79,NNW,348,5.0,12.0,59,0.00,,,-99.99,Weather View 32 v60,2013-02-20 14:23:00,
2013-02-20 06:28:00,43.1,30.1,29.79,NE,54,1.0,12.0,60,0.00,,,-99.99,Weather View 32 v60,2013-02-20 14:28:00,
2013-02-20 06:33:00,43.0,30.5,29.79,North,349,3.0,8.0,61,0.00,,,-99.99,Weather View 32 v60,2013-02-20 14:33:00,
2013-02-20 06:38:00,42.9,30.0,29.79,NNE,20,3.0,8.0,60,0.00,,,-99.99,Weather View 32 v60,2013-02-20 14:38:00,
2013-02-20 06:43:00,43.1,29.7,29.79,NE,38,8.0,12.0,59,0.00,,,-99.99,Weather View 32 v60,2013-02-20 14:43:00,
2013-02-20 06:48:00,43.5,29.7,29.80,NE,37,6.0,12.0,58,0.00,,,-99.99,Weather View 32 v60,2013-02-20 14:48:00,
2013-02-20 06:53:00,43.7,29.9,29.80,North,2,2.0,12.0,58,0.00,,,-99.99,Weather View 32 v60,2013-02-20 14:53:00,
2013-02-20 06:58:00,43.8,30.0,29.80,North,0,3.0,12.0,58,0.00,,,-99.99,Weather View 32 v60,2013-02-20 14:58:00,
2013-02-20 07:03:00,43.7,30.3,29.80,NE,55,3.0,12.0,59,0.00,,,-99.99,Weather View 32 v60,2013-02-20 15:03:00,
2013-02-20 07:08:00,43.6,31.0,29.81,ENE,58,1.0,12.0,61,0.00,,,-99.99,Weather View 32 v60,2013-02-20 15:08:00,
2013-02-20 07:13:00,43.3,31.5,29.81,ENE,58,0.0,12.0,63,0.00,,,-99.99,Weather View 32 v60,2013-02-20 15:13:00,
2013-02-20 07:18:00,42.9,31.2,29.81,North,0,2.0,12.0,63,0.00,,,-99.99,Weather View 32 v60,2013-02-20 15:18:00,
2013-02-20 07:23:00,42.4,31.5,29.81,North,0,2.0,12.0,65,0.00,,,-99.99,Weather View 32 v60,2013-02-20 15:23:00,
2013-02-20 07:28:00,42.0,31.8,29.81,North,0,2.0,12.0,67,0.00,,,-99.99,Weather View 32 v60,2013-02-20 15:28:00,
2013-02-20 07:33:00,41.6,31.8,29.81,NE,36,4.0,12.0,68,0.00,,,-99.99,Weather View 32 v60,2013-02-20 15:33:00,
2013-02-20 07:43:00,41.7,30.8,29.82,NE,45,8.0,10.0,65,0.00,,,-99.99,Weather View 32 v60,2013-02-20 15:43:00,
2013-02-20 07:48:00,42.0,31.1,29.82,NE,47,2.0,10.0,65,0.00,,,-99.99,Weather View 32 v60,2013-02-20 15:48:00,
2013-02-20 07:53:00,41.9,31.7,29.82,SW,217,2.0,10.0,67,0.00,,,-99.99,Weather View 32 v60,2013-02-20 15:53:00,
2013-02-20 07:58:00,41.8,31.3,29.83,North,10,3.0,10.0,66,0.00,,,-99.99,Weather View 32 v60,2013-02-20 15:58:00,
2013-02-20 08:03:00,41.9,30.6,29.83,NNE,33,5.0,10.0,64,0.00,,,-99.99,Weather View 32 v60,2013-02-20 16:03:00,
2013-02-20 08:08:00,42.3,30.6,29.83,NNE,33,0.0,10.0,63,0.00,,,-99.99,Weather View 32 v60,2013-02-20 16:08:00,
2013-02-20 08:13:00,42.5,31.5,29.84,NNE,29,4.0,10.0,65,0.00,,,-99.99,Weather View 32 v60,2013-02-20 16:13:00,
2013-02-20 08:18:00,42.6,30.5,29.84,NNE,16,4.0,10.0,62,0.00,,,-99.99,Weather View 32 v60,2013-02-20 16:18:00,
2013-02-20 08:23:00,42.9,30.4,29.84,ENE,57,3.0,10.0,61,0.00,,,-99.99,Weather View 32 v60,2013-02-20 16:23:00,
2013-02-20 08:28:00,43.4,30.4,29.84,NNE,24,2.0,10.0,60,0.00,,,-99.99,Weather View 32 v60,2013-02-20 16:28:00,
2013-02-20 08:33:00,43.8,30.8,29.84,NNE,24,2.0,10.0,60,0.00,,,-99.99,Weather View 32 v60,2013-02-20 16:33:00,
2013-02-20 08:43:00,44.3,30.9,29.84,NNE,24,6.0,9.0,59,0.00,,,-99.99,Weather View 32 v60,2013-02-20 16:43:00,
2013-02-20 08:48:00,44.5,31.0,29.84,North,11,3.0,8.0,59,0.00,,,-99.99,Weather View 32 v60,2013-02-20 16:48:00,
2013-02-20 08:53:00,44.9,30.6,29.84,North,0,3.0,10.0,57,0.00,,,-99.99,Weather View 32 v60,2013-02-20 16:53:00,
2013-02-20 08:58:00,45.2,31.7,29.84,NNE,27,4.0,10.0,59,0.00,,,-99.99,Weather View 32 v60,2013-02-20 16:58:00,
2013-02-20 09:03:00,45.5,31.1,29.85,North,0,6.0,10.0,57,0.00,,,-99.99,Weather View 32 v60,2013-02-20 17:03:00,
2013-02-20 09:08:00,45.8,31.4,29.85,NNE,27,6.0,10.0,57,0.00,,,-99.99,Weather View 32 v60,2013-02-20 17:08:00,
2013-02-20 09:13:00,46.1,31.3,29.85,NNE,29,4.0,10.0,56,0.00,,,-99.99,Weather View 32 v60,2013-02-20 17:13:00,
2013-02-20 09:18:00,46.4,31.1,29.85,North,356,1.0,10.0,55,0.00,,,-99.99,Weather View 32 v60,2013-02-20 17:18:00,
2013-02-20 09:23:00,46.7,31.8,29.85,NE,56,1.0,10.0,56,0.00,,,-99.99,Weather View 32 v60,2013-02-20 17:23:00,
2013-02-20 09:28:00,46.8,31.5,29.85,NE,54,3.0,10.0,55,0.00,,,-99.99,Weather View 32 v60,2013-02-20 17:28:00,
2013-02-20 09:33:00,47.3,31.5,29.85,North,4,3.0,10.0,54,0.00,,,-99.99,Weather View 32 v60,2013-02-20 17:33:00,
2013-02-20 09:38:00,47.8,31.5,29.85,North,352,10.0,10.0,53,0.00,,,-99.99,Weather View 32 v60,2013-02-20 17:38:00,
2013-02-20 09:43:00,48.3,31.0,29.85,North,3,3.0,11.0,51,0.00,,,-99.99,Weather View 32 v60,2013-02-20 17:43:00,
2013-02-20 09:48:00,48.8,31.4,29.86,NNE,17,4.0,11.0,51,0.00,,,-99.99,Weather View 32 v60,2013-02-20 17:48:00,
2013-02-20 09:53:00,49.2,31.8,29.86,North,3,9.0,12.0,51,0.00,,,-99.99,Weather View 32 v60,2013-02-20 17:53:00,
2013-02-20 09:58:00,49.5,32.1,29.86,North,352,4.0,12.0,51,0.00,,,-99.99,Weather View 32 v60,2013-02-20 17:58:00,
2013-02-20 10:03:00,49.6,32.7,29.86,NE,41,8.0,12.0,52,0.00,,,-99.99,Weather View 32 v60,2013-02-20 18:03:00,
2013-02-20 10:08:00,49.7,33.2,29.85,North,354,7.0,12.0,53,0.00,,,-99.99,Weather View 32 v60,2013-02-20 18:08:00,
2013-02-20 10:13:00,49.8,33.3,29.85,NE,41,2.0,12.0,53,0.00,,,-99.99,Weather View 32 v60,2013-02-20 18:13:00,
2013-02-20 10:18:00,50.0,32.6,29.86,NNE,23,5.0,12.0,51,0.00,,,-99.99,Weather View 32 v60,2013-02-20 18:18:00,
2013-02-20 10:23:00,50.3,33.3,29.85,NNE,31,4.0,12.0,52,0.00,,,-99.99,Weather View 32 v60,2013-02-20 18:23:00,
2013-02-20 10:28:00,50.6,33.6,29.85,NE,52,7.0,12.0,52,0.00,,,-99.99,Weather View 32 v60,2013-02-20 18:28:00,
2013-02-20 10:33:00,50.8,33.3,29.86,West,265,2.0,12.0,51,0.00,,,-99.99,Weather View 32 v60,2013-02-20 18:33:00,
2013-02-20 10:43:00,51.2,33.7,29.86,North,4,4.0,12.0,51,0.00,,,-99.99,Weather View 32 v60,2013-02-20 18:43:00,
2013-02-20 10:48:00,51.5,34.4,29.86,NE,45,3.0,12.0,52,0.00,,,-99.99,Weather View 32 v60,2013-02-20 18:48:00,
2013-02-20 10:53:00,51.6,34.0,29.86,NNE,32,6.0,12.0,51,0.00,,,-99.99,Weather View 32 v60,2013-02-20 18:53:00,
2013-02-20 10:58:00,51.9,34.3,29.86,NNE,15,4.0,12.0,51,0.00,,,-99.99,Weather View 32 v60,2013-02-20 18:58:00,
2013-02-20 11:03:00,52.1,34.5,29.86,NNE,19,2.0,12.0,51,0.00,,,-99.99,Weather View 32 v60,2013-02-20 19:03:00,
2013-02-20 11:08:00,52.4,34.3,29.86,North,0,6.0,12.0,50,0.00,,,-99.99,Weather View 32 v60,2013-02-20 19:08:00,
2013-02-20 11:13:00,52.7,34.5,29.86,North,358,4.0,12.0,50,0.00,,,-99.99,Weather View 32 v60,2013-02-20 19:13:00,
2013-02-20 11:18:00,52.9,34.7,29.86,NNE,22,9.0,12.0,50,0.00,,,-99.99,Weather View 32 v60,2013-02-20 19:18:00,
2013-02-20 11:23:00,53.2,34.5,29.86,NNW,340,4.0,12.0,49,0.00,,,-99.99,Weather View 32 v60,2013-02-20 19:23:00,
2013-02-20 11:28:00,53.4,34.7,29.86,NNW,327,2.0,12.0,49,0.00,,,-99.99,Weather View 32 v60,2013-02-20 19:28:00,
2013-02-20 11:33:00,53.4,35.2,29.86,ENE,66,2.0,12.0,50,0.00,,,-99.99,Weather View 32 v60,2013-02-20 19:33:00,
2013-02-20 11:38:00,53.6,35.4,29.86,ESE,106,1.0,12.0,50,0.00,,,-99.99,Weather View 32 v60,2013-02-20 19:38:00,
2013-02-20 11:48:00,54.0,35.2,29.86,North,0,4.0,12.0,49,0.00,,,-99.99,Weather View 32 v60,2013-02-20 19:48:00,
2013-02-20 11:53:00,54.3,35.5,29.86,ENE,68,1.0,12.0,49,0.00,,,-99.99,Weather View 32 v60,2013-02-20 19:53:00,
2013-02-20 11:58:00,54.6,35.8,29.86,WNW,286,0.0,12.0,49,0.00,,,-99.99,Weather View 32 v60,2013-02-20 19:58:00,
2013-02-20 12:03:00,54.8,37.0,29.86,NNW,336,0.0,12.0,51,0.00,,,-99.99,Weather View 32 v60,2013-02-20 20:03:00,
2013-02-20 12:08:00,55.0,36.7,29.86,NNW,346,4.0,12.0,50,0.00,,,-99.99,Weather View 32 v60,2013-02-20 20:08:00,
2013-02-20 12:13:00,55.1,37.3,29.86,NE,54,2.0,12.0,51,0.00,,,-99.99,Weather View 32 v60,2013-02-20 20:13:00,
2013-02-20 12:18:00,55.4,36.5,29.85,NE,42,5.0,12.0,49,0.00,,,-99.99,Weather View 32 v60,2013-02-20 20:18:00,
2013-02-20 12:23:00,55.6,36.7,29.85,NNE,16,3.0,12.0,49,0.00,,,-99.99,Weather View 32 v60,2013-02-20 20:23:00,
2013-02-20 12:28:00,55.8,36.4,29.85,North,1,6.0,12.0,48,0.00,,,-99.99,Weather View 32 v60,2013-02-20 20:28:00,
2013-02-20 12:33:00,56.0,37.6,29.86,NE,34,5.0,12.0,50,0.00,,,-99.99,Weather View 32 v60,2013-02-20 20:33:00,
2013-02-20 12:38:00,56.1,38.2,29.85,NNW,348,3.0,12.0,51,0.00,,,-99.99,Weather View 32 v60,2013-02-20 20:38:00,
2013-02-20 12:48:00,56.2,38.3,29.85,SE,134,4.0,12.0,51,0.00,,,-99.99,Weather View 32 v60,2013-02-20 20:48:00,
2013-02-20 12:53:00,56.1,38.2,29.85,East,90,3.0,12.0,51,0.00,,,-99.99,Weather View 32 v60,2013-02-20 20:53:00,
2013-02-20 12:58:00,56.2,38.3,29.85,North,1,4.0,12.0,51,0.00,,,-99.99,Weather View 32 v60,2013-02-20 20:58:00,
2013-02-20 13:03:00,56.3,38.4,29.85,ENE,57,3.0,12.0,51,0.00,,,-99.99,Weather View 32 v60,2013-02-20 21:03:00,
2013-02-20 13:08:00,56.5,39.0,29.85,NE,36,3.0,11.0,52,0.00,,,-99.99,Weather View 32 v60,2013-02-20 21:08:00,
2013-02-20 13:13:00,56.5,39.5,29.85,NE,55,3.0,11.0,53,0.00,,,-99.99,Weather View 32 v60,2013-02-20 21:13:00,
2013-02-20 13:18:00,56.3,39.8,29.85,NE,47,6.0,11.0,54,0.00,,,-99.99,Weather View 32 v60,2013-02-20 21:18:00,
2013-02-20 13:23:00,56.3,38.9,29.84,North,359,5.0,11.0,52,0.00,,,-99.99,Weather View 32 v60,2013-02-20 21:23:00,
2013-02-20 13:28:00,56.2,39.3,29.84,NE,35,3.0,11.0,53,0.00,,,-99.99,Weather View 32 v60,2013-02-20 21:28:00,
2013-02-20 13:33:00,56.2,39.3,29.84,NNW,346,1.0,11.0,53,0.00,,,-99.99,Weather View 32 v60,2013-02-20 21:33:00,
2013-02-20 13:38:00,56.3,38.9,29.84,ESE,122,4.0,11.0,52,0.00,,,-99.99,Weather View 32 v60,2013-02-20 21:38:00,
2013-02-20 13:43:00,56.5,39.0,29.84,North,353,5.0,11.0,52,0.00,,,-99.99,Weather View 32 v60,2013-02-20 21:43:00,
2013-02-20 13:48:00,56.7,39.2,29.84,North,9,5.0,11.0,52,0.00,,,-99.99,Weather View 32 v60,2013-02-20 21:48:00,
2013-02-20 13:53:00,56.7,39.7,29.84,ENE,59,2.0,11.0,53,0.00,,,-99.99,Weather View 32 v60,2013-02-20 21:53:00,
2013-02-20 13:58:00,56.9,39.9,29.84,South,179,3.0,11.0,53,0.00,,,-99.99,Weather View 32 v60,2013-02-20 21:58:00,
2013-02-20 14:03:00,56.9,40.4,29.84,SSW,194,3.0,11.0,54,0.00,,,-99.99,Weather View 32 v60,2013-02-20 22:03:00,
2013-02-20 14:08:00,57.1,40.6,29.83,SSW,196,2.0,11.0,54,0.00,,,-99.99,Weather View 32 v60,2013-02-20 22:08:00,
2013-02-20 14:13:00,57.2,40.2,29.83,North,353,3.0,11.0,53,0.00,,,-99.99,Weather View 32 v60,2013-02-20 22:13:00,
2013-02-20 14:18:00,57.0,40.5,29.83,SSE,162,9.0,11.0,54,0.00,,,-99.99,Weather View 32 v60,2013-02-20 22:18:00,
2013-02-20 14:23:00,57.2,40.2,29.83,SSE,161,2.0,11.0,53,0.00,,,-99.99,Weather View 32 v60,2013-02-20 22:23:00,
2013-02-20 14:28:00,57.3,40.3,29.83,South,175,4.0,11.0,53,0.00,,,-99.99,Weather View 32 v60,2013-02-20 22:28:00,
2013-02-20 14:33:00,57.5,40.5,29.83,WSW,248,2.0,11.0,53,0.00,,,-99.99,Weather View 32 v60,2013-02-20 22:33:00,
2013-02-20 14:38:00,57.6,40.6,29.83,WNW,284,2.0,11.0,53,0.00,,,-99.99,Weather View 32 v60,2013-02-20 22:38:00,
2013-02-20 14:48:00,57.4,39.9,29.83,North,0,4.0,12.0,52,0.00,,,-99.99,Weather View 32 v60,2013-02-20 22:48:00,
2013-02-20 14:53:00,57.4,39.9,29.83,North,0,1.0,12.0,52,0.00,,,-99.99,Weather View 32 v60,2013-02-20 22:53:00,
2013-02-20 15:03:00,57.9,40.3,29.83,NNE,26,2.0,12.0,52,0.00,,,-99.99,Weather View 32 v60,2013-02-20 23:03:00,
2013-02-20 15:08:00,57.8,40.2,29.83,NNE,24,0.0,12.0,52,0.00,,,-99.99,Weather View 32 v60,2013-02-20 23:08:00,
2013-02-20 15:13:00,57.9,40.3,29.83,SE,125,3.0,12.0,52,0.00,,,-99.99,Weather View 32 v60,2013-02-20 23:13:00,
2013-02-20 15:18:00,58.0,40.9,29.83,South,172,2.0,12.0,53,0.00,,,-99.99,Weather View 32 v60,2013-02-20 23:18:00,
2013-02-20 15:23:00,58.5,41.4,29.83,SE,126,2.0,12.0,53,0.00,,,-99.99,Weather View 32 v60,2013-02-20 23:23:00,
2013-02-20 15:28:00,58.4,40.8,29.83,North,0,1.0,12.0,52,0.00,,,-99.99,Weather View 32 v60,2013-02-20 23:28:00,
2013-02-20 15:33:00,58.1,40.5,29.83,South,174,5.0,12.0,52,0.00,,,-99.99,Weather View 32 v60,2013-02-20 23:33:00,
2013-02-20 15:38:00,58.0,40.9,29.83,SSE,151,6.0,12.0,53,0.00,,,-99.99,Weather View 32 v60,2013-02-20 23:38:00,
2013-02-20 15:43:00,57.9,40.8,29.82,SE,135,6.0,12.0,53,0.00,,,-99.99,Weather View 32 v60,2013-02-20 23:43:00,
2013-02-20 15:48:00,58.0,40.4,29.83,SSE,152,4.0,12.0,52,0.00,,,-99.99,Weather View 32 v60,2013-02-20 23:48:00,
2013-02-20 15:53:00,58.0,40.4,29.83,SW,214,5.0,12.0,52,0.00,,,-99.99,Weather View 32 v60,2013-02-20 23:53:00,
2013-02-20 16:03:00,57.1,40.1,29.83,SSE,157,5.0,12.0,53,0.00,,,-99.99,Weather View 32 v60,2013-02-21 00:03:00,
2013-02-20 16:05:00,57.1,40.1,29.83,SSE,157,5.0,12.0,53,0.00,,,-99.99,Weather View 32 v60,2013-02-21 00:05:00,
2013-02-20 16:33:00,54.3,39.8,29.84,South,188,2.0,12.0,58,0.00,,,-99.99,Weather View 32 v60,2013-02-21 00:33:00,
2013-02-20 16:43:00,53.6,38.7,29.84,South,176,6.0,12.0,57,0.00,,,-99.99,Weather View 32 v60,2013-02-21 00:43:00,
2013-02-20 16:53:00,53.3,38.9,29.84,SSE,157,7.0,11.0,58,0.00,,,-99.99,Weather View 32 v60,2013-02-21 00:53:00,
2013-02-20 16:58:00,53.2,39.2,29.84,South,169,12.0,14.0,59,0.00,,,-99.99,Weather View 32 v60,2013-02-21 00:58:00,
2013-02-20 17:03:00,52.9,39.8,29.84,South,171,7.0,14.0,61,0.00,,,-99.99,Weather View 32 v60,2013-02-21 01:03:00,
2013-02-20 17:13:00,52.3,39.6,29.84,SE,142,4.0,14.0,62,0.00,,,-99.99,Weather View 32 v60,2013-02-21 01:13:00,
2013-02-20 17:23:00,51.9,39.3,29.84,South,184,4.0,14.0,62,0.00,,,-99.99,Weather View 32 v60,2013-02-21 01:23:00,
2013-02-20 17:28:00,51.7,39.1,29.84,South,176,5.0,14.0,62,0.00,,,-99.99,Weather View 32 v60,2013-02-21 01:28:00,
2013-02-20 17:38:00,51.4,38.8,29.84,SSE,164,2.0,14.0,62,0.00,,,-99.99,Weather View 32 v60,2013-02-21 01:38:00,
2013-02-20 17:48:00,51.0,38.8,29.84,ESE,121,3.0,14.0,63,0.00,,,-99.99,Weather View 32 v60,2013-02-21 01:48:00,
2013-02-20 17:53:00,50.8,37.8,29.84,NE,43,1.0,14.0,61,0.00,,,-99.99,Weather View 32 v60,2013-02-21 01:53:00,
2013-02-20 17:58:00,50.7,37.7,29.85,NE,43,0.0,13.0,61,0.00,,,-99.99,Weather View 32 v60,2013-02-21 01:58:00,
2013-02-20 18:08:00,50.6,35.5,29.85,East,88,1.0,7.0,56,0.00,,,-99.99,Weather View 32 v60,2013-02-21 02:08:00,
2013-02-20 18:18:00,51.3,35.7,29.85,ENE,69,4.0,10.0,55,0.00,,,-99.99,Weather View 32 v60,2013-02-21 02:18:00,
2013-02-20 18:23:00,51.5,34.9,29.85,WSW,253,3.0,10.0,53,0.00,,,-99.99,Weather View 32 v60,2013-02-21 02:23:00,
2013-02-20 18:30:00,51.5,36.3,29.85,WNW,299,4.0,10.0,56,0.00,,,-99.99,Weather View 32 v60,2013-02-21 02:30:00,
2013-02-20 18:38:00,50.7,36.9,29.85,NNE,31,1.0,10.0,59,0.00,,,-99.99,Weather View 32 v60,2013-02-21 02:38:00,
2013-02-20 18:48:00,49.9,36.1,29.85,NW,324,0.0,10.0,59,0.00,,,-99.99,Weather View 32 v60,2013-02-21 02:48:00,
2013-02-20 18:58:00,50.1,35.4,29.85,NE,49,9.0,10.0,57,0.00,,,-99.99,Weather View 32 v60,2013-02-21 02:58:00,
2013-02-20 19:03:00,50.6,35.9,29.85,NNE,20,4.0,10.0,57,0.00,,,-99.99,Weather View 32 v60,2013-02-21 03:03:00,
2013-02-20 19:13:00,51.2,36.9,29.86,NE,51,0.0,10.0,58,0.00,,,-99.99,Weather View 32 v60,2013-02-21 03:13:00,
2013-02-20 19:18:00,51.1,37.2,29.86,NE,51,2.0,10.0,59,0.00,,,-99.99,Weather View 32 v60,2013-02-21 03:18:00,
2013-02-20 19:23:00,50.8,37.0,29.86,North,7,2.0,10.0,59,0.00,,,-99.99,Weather View 32 v60,2013-02-21 03:23:00,
2013-02-20 19:31:00,50.8,37.0,29.87,NE,41,4.0,10.0,59,0.00,,,-99.99,Weather View 32 v60,2013-02-21 03:31:00,
2013-02-20 19:38:00,50.8,37.4,29.87,ENE,74,4.0,10.0,60,0.00,,,-99.99,Weather View 32 v60,2013-02-21 03:38:00,
2013-02-20 19:48:00,51.3,36.6,29.88,North,0,3.0,12.0,57,0.00,,,-99.99,Weather View 32 v60,2013-02-21 03:48:00,
2013-02-20 19:58:00,51.4,36.6,29.88,East,86,4.0,12.0,57,0.00,,,-99.99,Weather View 32 v60,2013-02-21 03:58:00,
2013-02-20 20:03:00,51.4,36.6,29.88,ENE,60,2.0,12.0,57,0.00,,,-99.99,Weather View 32 v60,2013-02-21 04:03:00,
2013-02-20 20:13:00,51.2,36.0,29.88,ESE,123,3.0,12.0,56,0.00,,,-99.99,Weather View 32 v60,2013-02-21 04:13:00,
2013-02-20 20:18:00,51.2,36.0,29.89,NE,37,6.0,12.0,56,0.00,,,-99.99,Weather View 32 v60,2013-02-21 04:18:00,
2013-02-20 20:23:00,51.1,35.9,29.89,NE,35,4.0,12.0,56,0.00,,,-99.99,Weather View 32 v60,2013-02-21 04:23:00,
2013-02-20 20:31:00,51.1,36.4,29.89,North,2,5.0,12.0,57,0.00,,,-99.99,Weather View 32 v60,2013-02-21 04:31:00,
2013-02-20 20:38:00,50.9,35.3,29.89,ENE,66,2.0,12.0,55,0.00,,,-99.99,Weather View 32 v60,2013-02-21 04:38:00,
2013-02-20 20:43:00,50.9,35.3,29.89,North,4,10.0,12.0,55,0.00,,,-99.99,Weather View 32 v60,2013-02-21 04:43:00,
2013-02-20 20:53:00,50.7,35.1,29.89,North,3,4.0,11.0,55,0.00,,,-99.99,Weather View 32 v60,2013-02-21 04:53:00,
2013-02-20 20:58:00,50.7,35.1,29.89,North,0,0.0,11.0,55,0.00,,,-99.99,Weather View 32 v60,2013-02-21 04:58:00,
2013-02-20 21:03:00,50.5,35.4,29.89,WNW,299,0.0,11.0,56,0.00,,,-99.99,Weather View 32 v60,2013-02-21 05:03:00,
2013-02-20 21:08:00,50.4,35.3,29.89,NE,46,0.0,11.0,56,0.00,,,-99.99,Weather View 32 v60,2013-02-21 05:08:00,
2013-02-20 21:13:00,50.2,35.5,29.89,NE,37,0.0,11.0,57,0.00,,,-99.99,Weather View 32 v60,2013-02-21 05:13:00,
2013-02-20 21:23:00,49.6,35.0,29.91,North,6,5.0,10.0,57,0.00,,,-99.99,Weather View 32 v60,2013-02-21 05:23:00,
2013-02-20 21:28:00,49.7,35.1,29.91,North,351,2.0,10.0,57,0.00,,,-99.99,Weather View 32 v60,2013-02-21 05:28:00,
2013-02-20 21:38:00,49.6,35.8,29.91,North,0,0.0,10.0,59,0.00,,,-99.99,Weather View 32 v60,2013-02-21 05:38:00,
2013-02-20 21:48:00,49.0,35.7,29.92,South,186,0.0,10.0,60,0.00,,,-99.99,Weather View 32 v60,2013-02-21 05:48:00,
2013-02-20 21:53:00,48.8,35.5,29.92,SSE,161,3.0,10.0,60,0.00,,,-99.99,Weather View 32 v60,2013-02-21 05:53:00,
2013-02-20 22:03:00,48.7,35.4,29.92,North,0,2.0,9.0,60,0.00,,,-99.99,Weather View 32 v60,2013-02-21 06:03:00,
2013-02-20 22:08:00,48.6,35.7,29.92,South,169,0.0,9.0,61,0.00,,,-99.99,Weather View 32 v60,2013-02-21 06:08:00,
2013-02-20 22:13:00,48.5,35.6,29.92,ENE,71,0.0,9.0,61,0.00,,,-99.99,Weather View 32 v60,2013-02-21 06:13:00,
2013-02-20 22:23:00,48.3,35.9,29.92,ESE,118,0.0,9.0,62,0.00,,,-99.99,Weather View 32 v60,2013-02-21 06:23:00,
2013-02-20 22:28:00,48.1,35.3,29.92,SE,127,1.0,8.0,61,0.00,,,-99.99,Weather View 32 v60,2013-02-21 06:28:00,
2013-02-20 22:33:00,48.1,35.3,29.91,South,171,3.0,8.0,61,0.00,,,-99.99,Weather View 32 v60,2013-02-21 06:33:00,
2013-02-20 22:43:00,48.1,34.8,29.91,North,352,1.0,8.0,60,0.00,,,-99.99,Weather View 32 v60,2013-02-21 06:43:00,
2013-02-20 22:53:00,48.3,34.6,29.90,NNE,18,6.0,11.0,59,0.00,,,-99.99,Weather View 32 v60,2013-02-21 06:53:00,
2013-02-20 22:58:00,48.4,34.7,29.91,ENE,61,5.0,11.0,59,0.00,,,-99.99,Weather View 32 v60,2013-02-21 06:58:00,
2013-02-20 23:08:00,48.4,34.7,29.91,NNE,20,7.0,11.0,59,0.00,,,-99.99,Weather View 32 v60,2013-02-21 07:08:00,
2013-02-20 23:13:00,48.4,35.1,29.92,ENE,71,0.0,11.0,60,0.00,,,-99.99,Weather View 32 v60,2013-02-21 07:13:00,
2013-02-20 23:23:00,48.2,35.4,29.91,North,0,0.0,11.0,61,0.00,,,-99.99,Weather View 32 v60,2013-02-21 07:23:00,
2013-02-20 23:28:00,48.1,35.3,29.92,North,0,0.0,11.0,61,0.00,,,-99.99,Weather View 32 v60,2013-02-21 07:28:00,
2013-02-20 23:33:00,47.8,35.0,29.91,North,0,0.0,11.0,61,0.00,,,-99.99,Weather View 32 v60,2013-02-21 07:33:00,
2013-02-20 23:43:00,47.6,34.8,29.92,WNW,291,3.0,11.0,61,0.00,,,-99.99,Weather View 32 v60,2013-02-21 07:43:00,
2013-02-20 23:53:00,47.5,34.7,29.92,NE,37,3.0,11.0,61,0.00,,,-99.99,Weather View 32 v60,2013-02-21 07:53:00,